Location: Recife
(8.0585°S, 34.8848°W)
Time: 22:45:13
(UTC-03:00)

Tiros 1 - Pass Details

Date: 16 April 2026
Orbit: 618 x 649 km, 48.4° (Epoch: 19 May)

Event Time Altitude Azimuth Distance (km) Brightness Sun altitude
Rises 19:42:54 0° 304° (WNW) 2,944 11.3 -36.6°
Reaches altitude 10° 19:45:23 10° 295° (WNW) 2,039 10.4 -37.2°
Enters shadow 19:46:36 17° 286° (WNW) 1,632 9.8 -37.5°
